This is the latest recevied weather packets stored in our database for station/object K5NWZ. If no packets are shown the sender has not sent any weather packets the latest 10 day(s).
| Time | Temp. | Humidity | Pressure | Rain* | Wind** | Luminosity | Snow |
|---|---|---|---|---|---|---|---|
| 1787894078 | 20.56° C | 56% | 1029.5 hPa | 0 mm | - | 0 W/m² | - |
| 1787893775 | 21.11° C | 56% | 1029.7 hPa | 0 mm | - | 0 W/m² | - |
| 1787893470 | 21.11° C | 54% | 1029.5 hPa | 0 mm | - | 0 W/m² | - |
| 1787893166 | 21.67° C | 53% | 1029.4 hPa | 0 mm | - | 0 W/m² | - |
| 1787892863 | 22.22° C | 50% | 1029.6 hPa | 0 mm | - | 0 W/m² | - |
| 1787892559 | 22.22° C | 49% | 1029.7 hPa | 0 mm | - | 0 W/m² | - |
| 1787892254 | 22.22° C | 50% | 1029.8 hPa | 0 mm | - | 0 W/m² | - |
| 1787891950 | 22.22° C | 49% | 1029.6 hPa | 0 mm | - | 0 W/m² | - |
| 1787891645 | 22.22° C | 46% | 1029.5 hPa | 0 mm | - | 0 W/m² | - |
| 1787891341 | 22.22° C | 48% | 1029.6 hPa | 0 mm | - | 0 W/m² | - |
| 1787891035 | 22.22° C | 52% | 1029.5 hPa | 0 mm | - | 0 W/m² | - |
| 1787890734 | 22.22° C | 50% | 1029.6 hPa | 0 mm | - | 0 W/m² | - |
| 1787890429 | 22.22° C | 49% | 1029.5 hPa | 0 mm | - | 0 W/m² | - |
| 1787890125 | 22.78° C | 47% | 1029.5 hPa | 0 mm | - | 0 W/m² | - |
| 1787889824 | 22.22° C | 47% | 1029.7 hPa | 0 mm | - | 0 W/m² | - |
| 1787889519 | 22.22° C | 51% | 1029.6 hPa | 0 mm | - | 0 W/m² | - |
| 1787889219 | 22.22° C | 54% | 1029.4 hPa | 0 mm | - | 0 W/m² | - |
| 1787888914 | 22.22° C | 54% | 1029.6 hPa | 0 mm | - | 0 W/m² | - |
| 1787888609 | 22.22° C | 55% | 1029.4 hPa | 0 mm | - | 0 W/m² | - |
| 1787888304 | 22.22° C | 53% | 1029.4 hPa | 0 mm | - | 0 W/m² | - |
| 1787887994 | 22.78° C | 54% | 1029.4 hPa | 0 mm | - | 0 W/m² | - |
| 1787887689 | 22.78° C | 55% | 1029.4 hPa | 0 mm | - | 0 W/m² | - |
| 1787887384 | 22.78° C | 53% | 1029.4 hPa | 0 mm | - | 0 W/m² | - |
| 1787887085 | 22.78° C | 51% | 1029.1 hPa | 0 mm | - | 0 W/m² | - |
| 1787886780 | 23.33° C | 48% | 1029.5 hPa | 0 mm | - | 0 W/m² | - |
* Rain latest hour (hover to see other rain measurements)
** Current wind speed in m/s (hover to see current wind gust speed)